#timestamp,LO_Frequency,Hit,StdDev 
1506722415.7,286047014.2,Y
1506722435.6,286047003.7,P
1506722455.4,286047004.1,N
1506722475.2,286047005.8,N
1506722495.0,286047007.0,N
1506722495.9,286047007.0,N
1506722515.8,286047009.3,N
1506722535.6,286047012.4,Y
1506722555.4,286047001.6,P
1506722575.3,286047003.0,N
1506722595.1,286047005.4,N
1506722615.8,286047007.4,Y
1506722635.7,286047003.1,P
1506722655.5,286047001.7,N
1506722675.3,286047002.2,N
1506722695.2,286047004.0,Y
1506722715.0,286046999.5,P
1506722715.9,286046999.5,N
1506722735.7,286046999.8,N
1506722755.6,286047002.2,N
1506722775.4,286047002.5,N
1506722795.2,286047002.7,N
1506722815.1,286047000.2,N
1506722816.0,286047000.2,N
1506722835.8,286047002.7,N
1506722855.6,286047002.2,N
1506722875.5,286047004.5,Y
1506722895.3,286047005.9,P
1506722915.1,286047003.8,N
1506722935.9,286047005.7,P
1506722955.7,286047008.2,Y
1506722975.5,286046999.9,P
1506722995.4,286046999.5,N
1506723015.2,286046997.2,N
1506723035.0,286046993.8,N
1506723035.9,286046993.8,N
1506723055.8,286046992.2,N
1506723075.6,286046988.5,N
1506723095.4,286046989.9,N
1506723115.3,286046988.4,N
1506723135.1,286046982.3,Y
1506723155.8,286046984.9,P
1506723175.7,286046981.0,P
1506723195.5,286046979.0,P
1506723215.3,286046979.4,Y
1506723235.2,286046995.9,P
1506723255.9,286046995.9,N
1506723275.7,286046996.4,N
1506723295.6,286046993.1,N
1506723315.4,286046990.8,N
1506723335.2,286046988.9,N
1506723355.1,286046989.8,N
1506723356.0,286046989.8,N
1506723375.8,286046985.3,Y
1506723395.6,286046996.2,P
1506723415.5,286046996.2,N
1506723435.3,286046993.3,P
1506723455.1,286046997.1,N
1506723475.8,286046998.1,N
1506723495.7,286046998.4,N
1506723515.5,286046995.6,N
1506723535.3,286046996.3,N
1506723555.2,286046991.9,Y
1506723575.0,286046995.3,P
1506723575.9,286046995.3,P
1506723595.7,286046993.5,P
1506723615.6,286046997.6,N
1506723635.4,286046997.9,N
1506723655.2,286046995.1,Y
1506723675.1,286047001.4,P
1506723676.0,286047001.4,N
1506723695.8,286047001.6,N
1506723715.6,286047002.0,N
1506723735.5,286047002.1,N
1506723755.3,286047001.4,N
1506723775.1,286047002.1,N
1506723795.9,286047002.0,N
1506723815.7,286047004.1,N
1506723835.5,286047002.0,N
1506723855.4,286047004.0,N
1506723875.2,286046998.2,N
1506723895.0,286046993.5,Y
1506723895.9,286046993.5,P
1506723915.8,286046993.3,N
1506723935.6,286046993.3,N
1506723955.4,286046994.1,N
1506723975.3,286046994.4,N
1506723995.1,286046997.5,N
1506723996.0,286046997.5,N
1506724015.8,286046995.4,N
1506724035.7,286046996.4,N
1506724055.5,286046993.5,N
1506724075.3,286046997.1,N
1506724095.1,286046995.2,N
1506724115.9,286046995.9,N
1506724135.7,286046995.9,N
1506724155.5,286046995.6,N
1506724175.4,286046994.1,N
1506724195.2,286046991.0,Y
1506724215.0,286046998.8,P
1506724215.9,286046998.8,N
1506724235.8,286047005.0,P
1506724255.6,286047013.8,Y
1506724275.4,286047012.7,P
1506724295.3,286047017.8,N
1506724315.1,286047023.1,N
1506724335.8,286047024.8,N
1506724355.7,286047023.1,N
1506724375.5,286047023.5,N
1506724395.3,286047026.8,Y
1506724415.2,286047006.6,P
1506724435.9,286047010.2,N
1506724455.7,286047010.7,N
1506724475.6,286047012.4,Y
1506724495.4,286046998.1,P
1506724515.2,286047000.5,N
1506724535.1,286047001.0,N
1506724536.0,286047001.0,N
1506724555.8,286046999.6,N
1506724575.6,286047002.8,N
1506724595.5,286047004.3,N
1506724615.3,286047004.3,N
1506724635.1,286047003.7,N
1506724655.9,286047003.0,N
1506724675.7,286047005.5,N
1506724695.5,286047004.3,N
1506724715.3,286047005.0,N
1506724735.2,286047003.8,N
1506724755.0,286047003.6,N
1506724755.9,286047003.6,N
1506724775.7,286047003.0,N
1506724795.6,286047006.8,N
1506724815.4,286047005.2,N
1506724835.2,286047004.0,N
1506724855.1,286047003.7,N
1506724856.0,286047003.7,N
1506724875.8,286047006.8,N
1506724895.6,286047007.6,N
1506724915.5,286047003.0,N
1506724935.3,286047006.8,N
1506724955.1,286047007.7,N
1506724975.9,286047014.1,Y
1506724995.7,286047011.6,P
1506725015.5,286047011.5,P
1506725035.4,286047008.7,N
1506725055.2,286047004.9,N
1506725075.0,286047004.7,N
1506725075.9,286047004.7,N
1506725095.8,286047002.1,N
1506725115.6,286046998.5,N
1506725135.4,286046996.9,N
1506725155.2,286046993.4,N
1506725175.1,286046992.0,N
1506725176.0,286046992.0,N
1506725195.8,286046991.4,N
1506725215.6,286046988.6,N
1506725235.5,286046987.5,N
1506725255.3,286046986.7,N
1506725275.1,286046986.4,N
1506725295.9,286046984.2,N
1506725315.7,286046984.5,N
1506725335.5,286046984.3,N
1506725355.4,286046983.4,N
1506725375.2,286046983.1,N
1506725395.0,286046980.9,N
1506725395.9,286046980.9,N
1506725415.8,286046980.0,N
1506725435.6,286046978.3,N
1506725455.4,286046977.5,N
1506725475.2,286046977.4,N
1506725495.1,286046981.9,N
1506725496.0,286046981.9,N
1506725515.8,286046979.7,N
1506725535.6,286046977.5,N
1506725555.5,286046978.6,N
1506725575.3,286046978.6,N
1506725595.1,286046974.1,Y
1506725615.9,286046988.8,P
1506725635.7,286046992.4,P
1506725655.5,286046992.3,P
1506725675.4,286046989.8,Y
1506725695.2,286046998.7,P
1506725715.0,286046996.6,N
1506725715.9,286046996.6,N
1506725735.8,286046997.6,N
1506725755.6,286046997.9,N
1506725775.4,286046995.5,N
1506725795.3,286046994.1,N
1506725815.1,286046993.9,N
1506725816.0,286046993.9,N
1506725835.8,286046996.3,N
1506725855.7,286046996.2,N
1506725875.5,286046996.7,N
1506725895.3,286046997.8,N
1506725915.2,286046995.4,N
1506725935.9,286046993.5,Y
1506725955.7,286046999.6,P
1506725975.6,286046996.5,N
1506725995.4,286047002.0,N
